contact:dominique.lefevre@mio.osupytheas.fr, maurice.libes@osupytheas.fr, didier.mallarino@osupytheas.fr
Project:EMSO http://www.emso-fr.org/EMSO-France
Depth: 2436.0 m
Title:EMSO Ligure Ouest : Data MII capteur MICROCAT
DateTime_Computer,Latitude,Longitude,Temperature,Conductivity,Pressure,DateTime_Instrument
DateTime_Computer,Latitude,Longitude,degC,S m-1,dbar,DateTime_Instrument
2020-03-26T00:02:23Z,42.805,6.029,13.2985,4.60004,2469.844,2020-3-26T02:03:01Z
2020-03-26T00:05:26Z,42.805,6.029,13.3014,4.60006,2469.853,2020-3-26T02:06:04Z
2020-03-26T00:08:30Z,42.805,6.029,13.2986,4.60008,2469.821,2020-3-26T02:09:08Z
2020-03-26T00:11:33Z,42.805,6.029,13.3011,4.60026,2469.821,2020-3-26T02:12:11Z
2020-03-26T00:14:36Z,42.805,6.029,13.2984,4.59999,2469.844,2020-3-26T02:15:14Z
2020-03-26T00:17:39Z,42.805,6.029,13.2968,4.59994,2469.821,2020-3-26T02:18:17Z
2020-03-26T00:20:43Z,42.805,6.029,13.2966,4.59999,2469.844,2020-3-26T02:21:21Z
2020-03-26T00:23:46Z,42.805,6.029,13.2970,4.59988,2469.806,2020-3-26T02:24:24Z
2020-03-26T00:26:49Z,42.805,6.029,13.2964,4.59983,2469.821,2020-3-26T02:27:27Z
2020-03-26T00:29:52Z,42.805,6.029,13.2983,4.59991,2469.806,2020-3-26T02:30:30Z
2020-03-26T00:32:56Z,42.805,6.029,13.2968,4.59999,2469.821,2020-3-26T02:33:34Z
2020-03-26T00:35:59Z,42.805,6.029,13.2973,4.60000,2469.806,2020-3-26T02:36:37Z
2020-03-26T00:39:02Z,42.805,6.029,13.2972,4.60000,2469.783,2020-3-26T02:39:40Z
2020-03-26T00:42:05Z,42.805,6.029,13.2967,4.59986,2469.783,2020-3-26T02:42:43Z
2020-03-26T00:45:08Z,42.805,6.029,13.2966,4.59983,2469.76,2020-3-26T02:45:46Z
2020-03-26T00:48:12Z,42.805,6.029,13.2967,4.59984,2469.806,2020-3-26T02:48:50Z
2020-03-26T00:51:15Z,42.805,6.029,13.2970,4.59980,2469.844,2020-3-26T02:51:53Z
2020-03-26T00:54:18Z,42.805,6.029,13.2967,4.59978,2469.806,2020-3-26T02:54:56Z
2020-03-26T00:57:22Z,42.805,6.029,13.2965,4.59978,2469.783,2020-3-26T02:58:00Z
2020-03-26T01:00:25Z,42.805,6.029,13.2964,4.59978,2469.797,2020-3-26T03:01:03Z
2020-03-26T01:03:28Z,42.805,6.029,13.2968,4.59976,2469.821,2020-3-26T03:04:06Z
2020-03-26T01:06:31Z,42.805,6.029,13.2965,4.59983,2469.806,2020-3-26T03:07:09Z
2020-03-26T01:09:35Z,42.805,6.029,13.2964,4.59971,2469.797,2020-3-26T03:10:13Z
2020-03-26T01:12:38Z,42.805,6.029,13.2967,4.59973,2469.83,2020-3-26T03:13:16Z
2020-03-26T01:15:41Z,42.805,6.029,13.2967,4.59978,2469.76,2020-3-26T03:16:19Z
2020-03-26T01:18:45Z,42.805,6.029,13.2967,4.59982,2469.797,2020-3-26T03:19:23Z
2020-03-26T01:21:48Z,42.805,6.029,13.2980,4.59988,2469.797,2020-3-26T03:22:26Z
2020-03-26T01:24:51Z,42.805,6.029,13.2967,4.59987,2469.806,2020-3-26T03:25:29Z
2020-03-26T01:27:54Z,42.805,6.029,13.2967,4.59991,2469.806,2020-3-26T03:28:32Z
2020-03-26T01:30:58Z,42.805,6.029,13.2967,4.59987,2469.783,2020-3-26T03:31:36Z
2020-03-26T01:34:01Z,42.805,6.029,13.2965,4.59988,2469.797,2020-3-26T03:34:39Z
2020-03-26T01:37:04Z,42.805,6.029,13.2972,4.59982,2469.773,2020-3-26T03:37:42Z
2020-03-26T01:40:07Z,42.805,6.029,13.2963,4.59976,2469.76,2020-3-26T03:40:45Z
2020-03-26T01:43:10Z,42.805,6.029,13.2967,4.59978,2469.797,2020-3-26T03:43:48Z
2020-03-26T01:46:14Z,42.805,6.029,13.2968,4.59983,2469.797,2020-3-26T03:46:52Z
2020-03-26T01:49:17Z,42.805,6.029,13.2971,4.59982,2469.797,2020-3-26T03:49:55Z
2020-03-26T01:52:20Z,42.805,6.029,13.2968,4.59981,2469.773,2020-3-26T03:52:58Z
2020-03-26T01:55:23Z,42.805,6.029,13.2965,4.59986,2469.75,2020-3-26T03:56:01Z
2020-03-26T01:58:27Z,42.805,6.029,13.2961,4.59986,2469.773,2020-3-26T03:59:05Z
2020-03-26T02:01:30Z,42.805,6.029,13.2961,4.59983,2469.737,2020-3-26T04:02:08Z
2020-03-26T02:04:33Z,42.805,6.029,13.2968,4.59996,2469.737,2020-3-26T04:05:11Z
2020-03-26T02:07:37Z,42.805,6.029,13.2967,4.59984,2469.737,2020-3-26T04:08:15Z
2020-03-26T02:10:40Z,42.805,6.029,13.2966,4.59986,2469.737,2020-3-26T04:11:18Z
2020-03-26T02:13:43Z,42.805,6.029,13.2968,4.59987,2469.737,2020-3-26T04:14:21Z
2020-03-26T02:16:46Z,42.805,6.029,13.2964,4.59980,2469.773,2020-3-26T04:17:24Z
2020-03-26T02:19:50Z,42.805,6.029,13.2968,4.59986,2469.773,2020-3-26T04:20:28Z
2020-03-26T02:22:53Z,42.805,6.029,13.2966,4.59988,2469.75,2020-3-26T04:23:31Z
2020-03-26T02:25:56Z,42.805,6.029,13.2963,4.59982,2469.773,2020-3-26T04:26:34Z
2020-03-26T02:28:59Z,42.805,6.029,13.2964,4.59979,2469.773,2020-3-26T04:29:37Z
2020-03-26T02:32:03Z,42.805,6.029,13.2964,4.59979,2469.783,2020-3-26T04:32:41Z
2020-03-26T02:35:06Z,42.805,6.029,13.2967,4.59980,2469.76,2020-3-26T04:35:44Z
2020-03-26T02:38:09Z,42.805,6.029,13.2963,4.59978,2469.773,2020-3-26T04:38:47Z
2020-03-26T02:41:12Z,42.805,6.029,13.2965,4.59978,2469.737,2020-3-26T04:41:50Z
2020-03-26T02:44:16Z,42.805,6.029,13.2967,4.59978,2469.773,2020-3-26T04:44:54Z
2020-03-26T02:47:19Z,42.805,6.029,13.2964,4.59975,2469.76,2020-3-26T04:47:57Z
2020-03-26T02:50:22Z,42.805,6.029,13.2965,4.59979,2469.76,2020-3-26T04:51:00Z
2020-03-26T02:53:25Z,42.805,6.029,13.2964,4.59988,2469.773,2020-3-26T04:54:03Z
2020-03-26T02:56:29Z,42.805,6.029,13.2965,4.59981,2469.75,2020-3-26T04:57:07Z
2020-03-26T02:59:32Z,42.805,6.029,13.2968,4.59978,2469.75,2020-3-26T05:00:10Z
2020-03-26T03:02:35Z,42.805,6.029,13.2969,4.59985,2469.773,2020-3-26T05:03:13Z
2020-03-26T03:05:38Z,42.805,6.029,13.2967,4.59987,2469.75,2020-3-26T05:06:16Z
2020-03-26T03:08:42Z,42.805,6.029,13.2965,4.59988,2469.737,2020-3-26T05:09:20Z
2020-03-26T03:11:45Z,42.805,6.029,13.2971,4.59991,2469.773,2020-3-26T05:12:23Z
2020-03-26T03:14:48Z,42.805,6.029,13.2968,4.60004,2469.723,2020-3-26T05:15:26Z
2020-03-26T03:17:51Z,42.805,6.029,13.2965,4.59992,2469.75,2020-3-26T05:18:29Z
2020-03-26T03:20:55Z,42.805,6.029,13.2964,4.59989,2469.737,2020-3-26T05:21:33Z
2020-03-26T03:23:58Z,42.805,6.029,13.2968,4.59988,2469.75,2020-3-26T05:24:36Z
2020-03-26T03:27:01Z,42.805,6.029,13.2965,4.59999,2469.76,2020-3-26T05:27:39Z
2020-03-26T03:30:04Z,42.805,6.029,13.2968,4.59996,2469.75,2020-3-26T05:30:42Z
2020-03-26T03:33:08Z,42.805,6.029,13.2961,4.59998,2469.773,2020-3-26T05:33:46Z
2020-03-26T03:36:11Z,42.805,6.029,13.2965,4.59996,2469.783,2020-3-26T05:36:49Z
2020-03-26T03:39:14Z,42.805,6.029,13.2968,4.60001,2469.727,2020-3-26T05:39:52Z
2020-03-26T03:42:18Z,42.805,6.029,13.3024,4.59998,2469.773,2020-3-26T05:42:56Z
2020-03-26T03:45:21Z,42.805,6.029,13.2966,4.60006,2469.76,2020-3-26T05:45:59Z
2020-03-26T03:48:24Z,42.805,6.029,13.2965,4.60007,2469.737,2020-3-26T05:49:02Z
2020-03-26T03:51:27Z,42.805,6.029,13.2968,4.59997,2469.713,2020-3-26T05:52:05Z
2020-03-26T03:54:31Z,42.805,6.029,13.2964,4.59989,2469.727,2020-3-26T05:55:09Z
2020-03-26T03:57:34Z,42.805,6.029,13.2964,4.59996,2469.773,2020-3-26T05:58:12Z
2020-03-26T04:00:37Z,42.805,6.029,13.2972,4.59991,2469.737,2020-3-26T06:01:15Z
2020-03-26T04:03:41Z,42.805,6.029,13.2968,4.59985,2469.797,2020-3-26T06:04:19Z
2020-03-26T04:06:44Z,42.805,6.029,13.2974,4.60000,2469.783,2020-3-26T06:07:22Z
2020-03-26T04:09:47Z,42.805,6.029,13.2971,4.59996,2469.783,2020-3-26T06:10:25Z
2020-03-26T04:12:50Z,42.805,6.029,13.2967,4.59992,2469.797,2020-3-26T06:13:28Z
2020-03-26T04:15:53Z,42.805,6.029,13.3020,4.59996,2469.75,2020-3-26T06:16:31Z
2020-03-26T04:18:57Z,42.805,6.029,13.2982,4.60012,2469.797,2020-3-26T06:19:35Z
2020-03-26T04:22:00Z,42.805,6.029,13.2969,4.60017,2469.821,2020-3-26T06:22:38Z
2020-03-26T04:25:03Z,42.805,6.029,13.3003,4.60006,2469.783,2020-3-26T06:25:41Z
2020-03-26T04:28:06Z,42.805,6.029,13.3011,4.60011,2469.76,2020-3-26T06:28:44Z
2020-03-26T04:31:10Z,42.805,6.029,13.3011,4.60013,2469.797,2020-3-26T06:31:48Z
2020-03-26T04:34:13Z,42.805,6.029,13.2979,4.60009,2469.783,2020-3-26T06:34:51Z
2020-03-26T04:37:16Z,42.805,6.029,13.3076,4.60014,2469.773,2020-3-26T06:37:54Z
2020-03-26T04:40:19Z,42.805,6.029,13.2991,4.60029,2469.76,2020-3-26T06:40:57Z
2020-03-26T04:43:23Z,42.805,6.029,13.2967,4.60003,2469.806,2020-3-26T06:44:01Z
2020-03-26T04:46:26Z,42.805,6.029,13.3043,4.60004,2469.821,2020-3-26T06:47:04Z
2020-03-26T04:49:29Z,42.805,6.029,13.3032,4.60016,2469.806,2020-3-26T06:50:07Z
2020-03-26T04:52:32Z,42.805,6.029,13.3019,4.60007,2469.821,2020-3-26T06:53:10Z
2020-03-26T04:55:36Z,42.805,6.029,13.3009,4.60025,2469.821,2020-3-26T06:56:14Z
2020-03-26T04:58:39Z,42.805,6.029,13.3018,4.60009,2469.844,2020-3-26T06:59:17Z
2020-03-26T05:01:42Z,42.805,6.029,13.3021,4.60003,2469.821,2020-3-26T07:02:20Z
2020-03-26T05:04:45Z,42.805,6.029,13.3024,4.60016,2469.806,2020-3-26T07:05:23Z
2020-03-26T05:07:49Z,42.805,6.029,13.3027,4.60005,2469.83,2020-3-26T07:08:27Z
2020-03-26T05:10:52Z,42.805,6.029,13.3014,4.60011,2469.806,2020-3-26T07:11:30Z
2020-03-26T05:13:55Z,42.805,6.029,13.3051,4.60041,2469.806,2020-3-26T07:14:33Z
2020-03-26T05:16:59Z,42.805,6.029,13.3049,4.60008,2469.83,2020-3-26T07:17:37Z
2020-03-26T05:20:02Z,42.805,6.029,13.3015,4.60005,2469.89,2020-3-26T07:20:40Z
2020-03-26T05:23:05Z,42.805,6.029,13.3029,4.60008,2469.83,2020-3-26T07:23:43Z
2020-03-26T05:26:09Z,42.805,6.029,13.3015,4.59998,2469.83,2020-3-26T07:26:47Z
2020-03-26T05:29:12Z,42.805,6.029,13.3010,4.60011,2469.816,2020-3-26T07:29:50Z
2020-03-26T05:32:15Z,42.805,6.029,13.2995,4.60008,2469.844,2020-3-26T07:32:53Z
2020-03-26T05:35:18Z,42.805,6.029,13.3008,4.59999,2469.844,2020-3-26T07:35:56Z
2020-03-26T05:38:22Z,42.805,6.029,13.3017,4.60011,2469.844,2020-3-26T07:39:00Z
2020-03-26T05:41:25Z,42.805,6.029,13.3020,4.60002,2469.867,2020-3-26T07:42:03Z
2020-03-26T05:44:28Z,42.805,6.029,13.3009,4.60007,2469.867,2020-3-26T07:45:06Z
2020-03-26T05:47:32Z,42.805,6.029,13.3019,4.60019,2469.844,2020-3-26T07:48:10Z
2020-03-26T05:50:35Z,42.805,6.029,13.3019,4.60014,2469.867,2020-3-26T07:51:13Z
2020-03-26T05:53:38Z,42.805,6.029,13.3008,4.60008,2469.853,2020-3-26T07:54:16Z
2020-03-26T05:56:41Z,42.805,6.029,13.3009,4.60016,2469.867,2020-3-26T07:57:19Z
2020-03-26T05:59:44Z,42.805,6.029,13.3006,4.60020,2469.844,2020-3-26T08:00:22Z
2020-03-26T06:02:48Z,42.805,6.029,13.2998,4.60011,2469.89,2020-3-26T08:03:26Z
2020-03-26T06:05:51Z,42.805,6.029,13.3030,4.60017,2469.867,2020-3-26T08:06:29Z
2020-03-26T06:08:54Z,42.805,6.029,13.3027,4.60000,2469.904,2020-3-26T08:09:32Z
2020-03-26T06:11:58Z,42.805,6.029,13.3005,4.60011,2469.89,2020-3-26T08:12:36Z
2020-03-26T06:15:01Z,42.805,6.029,13.3016,4.60009,2469.853,2020-3-26T08:15:39Z
2020-03-26T06:18:04Z,42.805,6.029,13.3019,4.60009,2469.867,2020-3-26T08:18:42Z
2020-03-26T06:21:08Z,42.805,6.029,13.3007,4.60003,2469.89,2020-3-26T08:21:46Z
2020-03-26T06:24:11Z,42.805,6.029,13.3012,4.60011,2469.89,2020-3-26T08:24:49Z
2020-03-26T06:27:14Z,42.805,6.029,13.3009,4.60001,2469.89,2020-3-26T08:27:52Z
2020-03-26T06:30:17Z,42.805,6.029,13.3004,4.60000,2469.89,2020-3-26T08:30:55Z
2020-03-26T06:33:21Z,42.805,6.029,13.3024,4.60006,2469.89,2020-3-26T08:33:59Z
2020-03-26T06:36:24Z,42.805,6.029,13.3007,4.59996,2469.914,2020-3-26T08:37:02Z
2020-03-26T06:39:27Z,42.805,6.029,13.3000,4.59998,2469.89,2020-3-26T08:40:05Z
2020-03-26T06:42:30Z,42.805,6.029,13.2996,4.60009,2469.89,2020-3-26T08:43:08Z
2020-03-26T06:45:34Z,42.805,6.029,13.3016,4.60005,2469.9,2020-3-26T08:46:12Z
2020-03-26T06:48:37Z,42.805,6.029,13.3016,4.59999,2469.937,2020-3-26T08:49:15Z
2020-03-26T06:51:40Z,42.805,6.029,13.3004,4.60016,2469.914,2020-3-26T08:52:18Z
2020-03-26T06:54:43Z,42.805,6.029,13.3026,4.60005,2469.89,2020-3-26T08:55:21Z
2020-03-26T06:57:47Z,42.805,6.029,13.3019,4.60010,2469.9,2020-3-26T08:58:25Z
2020-03-26T07:00:50Z,42.805,6.029,13.3021,4.60014,2469.937,2020-3-26T09:01:28Z
2020-03-26T07:03:53Z,42.805,6.029,13.3013,4.60009,2469.923,2020-3-26T09:04:31Z
2020-03-26T07:06:56Z,42.805,6.029,13.3038,4.60009,2469.89,2020-3-26T09:07:34Z
2020-03-26T07:10:00Z,42.805,6.029,13.3021,4.60009,2469.937,2020-3-26T09:10:38Z
2020-03-26T07:13:03Z,42.805,6.029,13.3010,4.60014,2469.9,2020-3-26T09:13:41Z
2020-03-26T07:16:06Z,42.805,6.029,13.3039,4.60005,2469.9,2020-3-26T09:16:44Z
2020-03-26T07:19:10Z,42.805,6.029,13.3019,4.59996,2469.9,2020-3-26T09:19:48Z
2020-03-26T07:22:13Z,42.805,6.029,13.3006,4.60001,2469.96,2020-3-26T09:22:51Z
2020-03-26T07:25:16Z,42.805,6.029,13.3011,4.60001,2469.937,2020-3-26T09:25:54Z
2020-03-26T07:28:19Z,42.805,6.029,13.3006,4.60012,2469.947,2020-3-26T09:28:57Z
2020-03-26T07:31:23Z,42.805,6.029,13.3041,4.60008,2469.923,2020-3-26T09:32:01Z
2020-03-26T07:34:26Z,42.805,6.029,13.3026,4.60010,2469.937,2020-3-26T09:35:04Z
2020-03-26T07:37:29Z,42.805,6.029,13.3021,4.60009,2469.947,2020-3-26T09:38:07Z
2020-03-26T07:40:32Z,42.805,6.029,13.3024,4.59997,2469.96,2020-3-26T09:41:10Z
2020-03-26T07:43:35Z,42.805,6.029,13.3040,4.60004,2469.96,2020-3-26T09:44:13Z
2020-03-26T07:46:39Z,42.805,6.029,13.3017,4.60006,2469.937,2020-3-26T09:47:17Z
2020-03-26T07:49:42Z,42.805,6.029,13.3040,4.60014,2469.984,2020-3-26T09:50:20Z
2020-03-26T07:52:45Z,42.805,6.029,13.3026,4.60002,2469.96,2020-3-26T09:53:23Z
2020-03-26T07:55:48Z,42.805,6.029,13.3032,4.60014,2469.97,2020-3-26T09:56:27Z
2020-03-26T07:58:52Z,42.805,6.029,13.3024,4.60017,2469.9,2020-3-26T09:59:30Z
2020-03-26T08:01:55Z,42.805,6.029,13.3013,4.60023,2469.947,2020-3-26T10:02:33Z
2020-03-26T08:04:58Z,42.805,6.029,13.3029,4.60019,2469.96,2020-3-26T10:05:36Z
2020-03-26T08:08:02Z,42.805,6.029,13.3038,4.60016,2469.96,2020-3-26T10:08:40Z
2020-03-26T08:11:05Z,42.805,6.029,13.3061,4.60025,2469.923,2020-3-26T10:11:43Z
2020-03-26T08:14:08Z,42.805,6.029,13.3009,4.60014,2469.96,2020-3-26T10:14:46Z
2020-03-26T08:17:11Z,42.805,6.029,13.3015,4.60007,2469.96,2020-3-26T10:17:49Z
2020-03-26T08:20:15Z,42.805,6.029,13.3012,4.60027,2469.97,2020-3-26T10:20:53Z
2020-03-26T08:23:18Z,42.805,6.029,13.3015,4.60011,2469.947,2020-3-26T10:23:56Z
2020-03-26T08:26:21Z,42.805,6.029,13.3008,4.60006,2469.947,2020-3-26T10:26:59Z
2020-03-26T08:29:24Z,42.805,6.029,13.3037,4.60002,2469.956,2020-3-26T10:30:02Z
2020-03-26T08:32:28Z,42.805,6.029,13.3015,4.60010,2470.007,2020-3-26T10:33:06Z
2020-03-26T08:35:31Z,42.805,6.029,13.3012,4.60019,2469.97,2020-3-26T10:36:09Z
2020-03-26T08:38:34Z,42.805,6.029,13.3021,4.60003,2469.947,2020-3-26T10:39:12Z
2020-03-26T08:41:37Z,42.805,6.029,13.3013,4.60005,2469.947,2020-3-26T10:42:15Z
2020-03-26T08:44:41Z,42.805,6.029,13.3031,4.60006,2470.007,2020-3-26T10:45:19Z
2020-03-26T08:47:44Z,42.805,6.029,13.3025,4.60006,2469.96,2020-3-26T10:48:22Z
2020-03-26T08:50:47Z,42.805,6.029,13.3015,4.60021,2469.97,2020-3-26T10:51:25Z
2020-03-26T08:53:50Z,42.805,6.029,13.3014,4.60005,2469.984,2020-3-26T10:54:28Z
2020-03-26T08:56:54Z,42.805,6.029,13.3008,4.60023,2469.96,2020-3-26T10:57:32Z
2020-03-26T08:59:57Z,42.805,6.029,13.3014,4.59991,2469.947,2020-3-26T11:00:35Z
2020-03-26T09:03:00Z,42.805,6.029,13.3024,4.60040,2469.937,2020-3-26T11:03:38Z
2020-03-26T09:06:04Z,42.805,6.029,13.3030,4.60046,2469.97,2020-3-26T11:06:42Z
2020-03-26T09:09:07Z,42.805,6.029,13.3081,4.60028,2469.914,2020-3-26T11:09:45Z
2020-03-26T09:12:10Z,42.805,6.029,13.3001,4.60023,2469.984,2020-3-26T11:12:48Z
2020-03-26T09:15:13Z,42.805,6.029,13.3030,4.60019,2469.97,2020-3-26T11:15:51Z
2020-03-26T09:18:17Z,42.805,6.029,13.3038,4.60016,2469.97,2020-3-26T11:18:55Z
2020-03-26T09:21:20Z,42.805,6.029,13.3011,4.60047,2469.97,2020-3-26T11:21:58Z
2020-03-26T09:24:23Z,42.805,6.029,13.3034,4.60014,2469.937,2020-3-26T11:25:01Z
2020-03-26T09:27:26Z,42.805,6.029,13.3015,4.60026,2469.947,2020-3-26T11:28:04Z
2020-03-26T09:30:29Z,42.805,6.029,13.3030,4.60027,2469.937,2020-3-26T11:31:07Z
2020-03-26T09:33:33Z,42.805,6.029,13.3015,4.60006,2469.96,2020-3-26T11:34:11Z
2020-03-26T09:36:36Z,42.805,6.029,13.3007,4.59997,2469.923,2020-3-26T11:37:14Z
2020-03-26T09:39:39Z,42.805,6.029,13.3013,4.60015,2469.96,2020-3-26T11:40:17Z
2020-03-26T09:42:42Z,42.805,6.029,13.3014,4.60015,2469.937,2020-3-26T11:43:20Z
2020-03-26T09:45:46Z,42.805,6.029,13.3021,4.60010,2469.937,2020-3-26T11:46:24Z
2020-03-26T09:48:49Z,42.805,6.029,13.3021,4.60009,2469.947,2020-3-26T11:49:27Z
2020-03-26T09:51:52Z,42.805,6.029,13.3032,4.60024,2469.97,2020-3-26T11:52:30Z
2020-03-26T09:54:55Z,42.805,6.029,13.3029,4.60010,2469.96,2020-3-26T11:55:33Z
2020-03-26T09:57:59Z,42.805,6.029,13.3018,4.60009,2469.947,2020-3-26T11:58:37Z
2020-03-26T10:01:02Z,42.805,6.029,13.3029,4.60012,2469.947,2020-3-26T12:01:40Z
2020-03-26T10:04:05Z,42.805,6.029,13.3016,4.60007,2469.937,2020-3-26T12:04:43Z
2020-03-26T10:07:08Z,42.805,6.029,13.3012,4.60011,2469.947,2020-3-26T12:07:46Z
2020-03-26T10:10:11Z,42.805,6.029,13.3015,4.60005,2469.947,2020-3-26T12:10:49Z
2020-03-26T10:13:15Z,42.805,6.029,13.3012,4.60014,2469.923,2020-3-26T12:13:53Z
2020-03-26T10:16:18Z,42.805,6.029,13.3019,4.60006,2469.937,2020-3-26T12:16:56Z
2020-03-26T10:19:21Z,42.805,6.029,13.3032,4.60016,2469.923,2020-3-26T12:19:59Z
2020-03-26T10:22:24Z,42.805,6.029,13.3018,4.60009,2469.923,2020-3-26T12:23:02Z
2020-03-26T10:25:28Z,42.805,6.029,13.3024,4.60003,2469.96,2020-3-26T12:26:06Z
2020-03-26T10:28:31Z,42.805,6.029,13.3019,4.60008,2469.96,2020-3-26T12:29:09Z
2020-03-26T10:31:34Z,42.805,6.029,13.3010,4.60029,2469.937,2020-3-26T12:32:12Z
2020-03-26T10:34:37Z,42.805,6.029,13.3018,4.60006,2469.923,2020-3-26T12:35:15Z
2020-03-26T10:37:41Z,42.805,6.029,13.3021,4.60005,2469.914,2020-3-26T12:38:19Z
2020-03-26T10:40:44Z,42.805,6.029,13.3016,4.60011,2469.923,2020-3-26T12:41:22Z
2020-03-26T10:43:47Z,42.805,6.029,13.3019,4.60016,2469.937,2020-3-26T12:44:25Z
2020-03-26T10:46:50Z,42.805,6.029,13.3008,4.60011,2469.923,2020-3-26T12:47:28Z
2020-03-26T10:49:54Z,42.805,6.029,13.3024,4.60006,2469.923,2020-3-26T12:50:32Z
2020-03-26T10:52:57Z,42.805,6.029,13.3027,4.59968,2469.914,2020-3-26T12:53:35Z
2020-03-26T10:56:00Z,42.805,6.029,13.3011,4.60023,2469.923,2020-3-26T12:56:38Z
2020-03-26T10:59:03Z,42.805,6.029,13.3013,4.60017,2469.937,2020-3-26T12:59:41Z
2020-03-26T11:02:07Z,42.805,6.029,13.3022,4.60007,2469.96,2020-3-26T13:02:45Z
2020-03-26T11:05:10Z,42.805,6.029,13.3026,4.60010,2469.914,2020-3-26T13:05:48Z
2020-03-26T11:08:13Z,42.805,6.029,13.3011,4.60009,2469.9,2020-3-26T13:08:51Z
2020-03-26T11:11:16Z,42.805,6.029,13.3002,4.60005,2469.89,2020-3-26T13:11:54Z
2020-03-26T11:14:20Z,42.805,6.029,13.3001,4.60003,2469.923,2020-3-26T13:14:58Z
2020-03-26T11:17:23Z,42.805,6.029,13.3009,4.60001,2469.876,2020-3-26T13:18:01Z
2020-03-26T11:20:26Z,42.805,6.029,13.3010,4.59999,2469.9,2020-3-26T13:21:04Z
2020-03-26T11:23:29Z,42.805,6.029,13.3022,4.60004,2469.937,2020-3-26T13:24:07Z
2020-03-26T11:26:33Z,42.805,6.029,13.3020,4.60014,2469.9,2020-3-26T13:27:11Z
2020-03-26T11:29:36Z,42.805,6.029,13.3008,4.60005,2469.876,2020-3-26T13:30:14Z
2020-03-26T11:32:39Z,42.805,6.029,13.3004,4.60011,2469.914,2020-3-26T13:33:17Z
2020-03-26T11:35:42Z,42.805,6.029,13.3009,4.60007,2469.914,2020-3-26T13:36:20Z
2020-03-26T11:38:46Z,42.805,6.029,13.2998,4.60005,2469.876,2020-3-26T13:39:24Z
2020-03-26T11:41:49Z,42.805,6.029,13.2998,4.60003,2469.89,2020-3-26T13:42:27Z
2020-03-26T11:44:52Z,42.805,6.029,13.3004,4.60000,2469.876,2020-3-26T13:45:30Z
2020-03-26T11:47:55Z,42.805,6.029,13.3000,4.60005,2469.876,2020-3-26T13:48:33Z
2020-03-26T11:50:59Z,42.805,6.029,13.3007,4.60000,2469.876,2020-3-26T13:51:37Z
2020-03-26T11:54:02Z,42.805,6.029,13.3009,4.59999,2469.867,2020-3-26T13:54:40Z
2020-03-26T11:57:06Z,42.805,6.029,13.3004,4.60006,2469.867,2020-3-26T13:57:44Z
2020-03-26T12:00:09Z,42.805,6.029,13.3009,4.59998,2469.89,2020-3-26T14:00:47Z
2020-03-26T12:03:12Z,42.805,6.029,13.3011,4.60012,2469.867,2020-3-26T14:03:50Z
2020-03-26T12:06:15Z,42.805,6.029,13.3012,4.60029,2469.89,2020-3-26T14:06:53Z
2020-03-26T12:09:18Z,42.805,6.029,13.3036,4.60026,2469.853,2020-3-26T14:09:56Z
2020-03-26T12:12:22Z,42.805,6.029,13.3010,4.60005,2469.853,2020-3-26T14:13:00Z
2020-03-26T12:15:25Z,42.805,6.029,13.3010,4.60019,2469.853,2020-3-26T14:16:03Z
2020-03-26T12:18:28Z,42.805,6.029,13.3039,4.60033,2469.876,2020-3-26T14:19:06Z
2020-03-26T12:21:31Z,42.805,6.029,13.2981,4.60016,2469.853,2020-3-26T14:22:09Z
2020-03-26T12:24:35Z,42.805,6.029,13.3012,4.60011,2469.914,2020-3-26T14:25:13Z
2020-03-26T12:27:38Z,42.805,6.029,13.3021,4.60002,2469.83,2020-3-26T14:28:16Z
2020-03-26T12:30:41Z,42.805,6.029,13.3004,4.60009,2469.853,2020-3-26T14:31:19Z
2020-03-26T12:33:44Z,42.805,6.029,13.3010,4.60003,2469.89,2020-3-26T14:34:22Z
2020-03-26T12:36:48Z,42.805,6.029,13.3006,4.60007,2469.83,2020-3-26T14:37:26Z
2020-03-26T12:39:51Z,42.805,6.029,13.3007,4.60013,2469.844,2020-3-26T14:40:29Z
2020-03-26T12:42:54Z,42.805,6.029,13.3009,4.60007,2469.867,2020-3-26T14:43:32Z
2020-03-26T12:45:57Z,42.805,6.029,13.3006,4.60011,2469.83,2020-3-26T14:46:35Z
2020-03-26T12:49:01Z,42.805,6.029,13.3016,4.60008,2469.853,2020-3-26T14:49:39Z
2020-03-26T12:52:04Z,42.805,6.029,13.3009,4.60009,2469.83,2020-3-26T14:52:42Z
2020-03-26T12:55:07Z,42.805,6.029,13.3007,4.60008,2469.853,2020-3-26T14:55:45Z
2020-03-26T12:58:10Z,42.805,6.029,13.3039,4.60016,2469.844,2020-3-26T14:58:48Z
2020-03-26T13:01:14Z,42.805,6.029,13.3013,4.60018,2469.844,2020-3-26T15:01:52Z
2020-03-26T13:04:17Z,42.805,6.029,13.3010,4.60000,2469.853,2020-3-26T15:04:55Z
2020-03-26T13:07:20Z,42.805,6.029,13.2998,4.60020,2469.83,2020-3-26T15:07:58Z
2020-03-26T13:10:23Z,42.805,6.029,13.3005,4.60015,2469.806,2020-3-26T15:11:01Z
2020-03-26T13:13:27Z,42.805,6.029,13.3019,4.60009,2469.867,2020-3-26T15:14:05Z
2020-03-26T13:16:30Z,42.805,6.029,13.3015,4.59999,2469.844,2020-3-26T15:17:08Z
2020-03-26T13:19:33Z,42.805,6.029,13.3021,4.60001,2469.844,2020-3-26T15:20:11Z
2020-03-26T13:22:36Z,42.805,6.029,13.3009,4.60009,2469.867,2020-3-26T15:23:14Z
2020-03-26T13:25:40Z,42.805,6.029,13.3026,4.60044,2469.844,2020-3-26T15:26:18Z
2020-03-26T13:28:43Z,42.805,6.029,13.3018,4.60043,2469.806,2020-3-26T15:29:21Z
2020-03-26T13:31:46Z,42.805,6.029,13.3024,4.60019,2469.821,2020-3-26T15:32:24Z
2020-03-26T13:34:49Z,42.805,6.029,13.3013,4.60010,2469.853,2020-3-26T15:35:27Z
2020-03-26T13:37:53Z,42.805,6.029,13.3021,4.60008,2469.83,2020-3-26T15:38:31Z
2020-03-26T13:40:56Z,42.805,6.029,13.3025,4.60005,2469.806,2020-3-26T15:41:34Z
2020-03-26T13:43:59Z,42.805,6.029,13.3013,4.60010,2469.806,2020-3-26T15:44:37Z
2020-03-26T13:47:03Z,42.805,6.029,13.2999,4.60005,2469.844,2020-3-26T15:47:41Z
2020-03-26T13:50:06Z,42.805,6.029,13.3035,4.60002,2469.844,2020-3-26T15:50:44Z
2020-03-26T13:53:09Z,42.805,6.029,13.3006,4.60003,2469.867,2020-3-26T15:53:47Z
2020-03-26T13:56:12Z,42.805,6.029,13.3020,4.60016,2469.83,2020-3-26T15:56:50Z
2020-03-26T13:59:15Z,42.805,6.029,13.3014,4.60013,2469.83,2020-3-26T15:59:53Z
2020-03-26T14:02:19Z,42.805,6.029,13.3006,4.59996,2469.844,2020-3-26T16:02:57Z
2020-03-26T14:05:22Z,42.805,6.029,13.3006,4.60006,2469.844,2020-3-26T16:06:00Z
2020-03-26T14:08:25Z,42.805,6.029,13.3011,4.59999,2469.853,2020-3-26T16:09:03Z
2020-03-26T14:11:28Z,42.805,6.029,13.3023,4.60000,2469.844,2020-3-26T16:12:06Z
2020-03-26T14:14:31Z,42.805,6.029,13.3001,4.59997,2469.844,2020-3-26T16:15:09Z
2020-03-26T14:17:35Z,42.805,6.029,13.3019,4.60039,2469.83,2020-3-26T16:18:13Z
2020-03-26T14:20:38Z,42.805,6.029,13.3021,4.60009,2469.867,2020-3-26T16:21:16Z
2020-03-26T14:23:41Z,42.805,6.029,13.3022,4.60001,2469.821,2020-3-26T16:24:19Z
2020-03-26T14:26:44Z,42.805,6.029,13.3024,4.60009,2469.844,2020-3-26T16:27:22Z
2020-03-26T14:29:48Z,42.805,6.029,13.3006,4.60009,2469.867,2020-3-26T16:30:26Z
2020-03-26T14:32:51Z,42.805,6.029,13.3016,4.60012,2469.844,2020-3-26T16:33:29Z
2020-03-26T14:35:54Z,42.805,6.029,13.3015,4.60006,2469.806,2020-3-26T16:36:32Z
2020-03-26T14:38:57Z,42.805,6.029,13.2991,4.60003,2469.821,2020-3-26T16:39:35Z
2020-03-26T14:42:00Z,42.805,6.029,13.3022,4.60021,2469.89,2020-3-26T16:42:38Z
2020-03-26T14:45:04Z,42.805,6.029,13.3038,4.60041,2469.821,2020-3-26T16:45:42Z
2020-03-26T14:48:07Z,42.805,6.029,13.3058,4.60041,2469.821,2020-3-26T16:48:45Z
2020-03-26T14:51:10Z,42.805,6.029,13.3041,4.60013,2469.83,2020-3-26T16:51:48Z
2020-03-26T14:54:13Z,42.805,6.029,13.2974,4.60005,2469.797,2020-3-26T16:54:51Z
2020-03-26T14:57:16Z,42.805,6.029,13.3022,4.60004,2469.821,2020-3-26T16:57:54Z
2020-03-26T15:00:20Z,42.805,6.029,13.2967,4.60010,2469.844,2020-3-26T17:00:58Z
2020-03-26T15:03:23Z,42.805,6.029,13.2971,4.60006,2469.821,2020-3-26T17:04:01Z
2020-03-26T15:06:26Z,42.805,6.029,13.2971,4.60011,2469.806,2020-3-26T17:07:04Z
2020-03-26T15:09:29Z,42.805,6.029,13.2976,4.59991,2469.821,2020-3-26T17:10:07Z
2020-03-26T15:12:32Z,42.805,6.029,13.2970,4.60005,2469.844,2020-3-26T17:13:10Z
2020-03-26T15:15:36Z,42.805,6.029,13.2985,4.60001,2469.83,2020-3-26T17:16:14Z